This is the latest recevied weather packets stored in our database for station/object KM4KBD. If no packets are shown the sender has not sent any weather packets the latest 10 day(s).
| Time | Temp. | Humidity | Pressure | Rain* | Wind** | Luminosity | Snow |
|---|---|---|---|---|---|---|---|
| 1778106398 | 15.56° C | 75% | 1018.7 hPa | 0 mm | - | 42 W/m² | - |
| 1778106093 | 15.56° C | 75% | 1018.3 hPa | 0 mm | - | 47 W/m² | - |
| 1778105792 | 15.56° C | 75% | 1017.8 hPa | 0 mm | - | 83 W/m² | - |
| 1778105489 | 15.56° C | 76% | 1018.1 hPa | 0 mm | - | 64 W/m² | - |
| 1778105186 | 15.56° C | 74% | 1018.5 hPa | 0 mm | - | 77 W/m² | - |
| 1778104881 | 15.56° C | 74% | 1018.9 hPa | 0 mm | - | 71 W/m² | - |
| 1778104578 | 15.56° C | 76% | 1018.5 hPa | 0 mm | - | 126 W/m² | - |
| 1778104273 | 15.56° C | 75% | 1018.8 hPa | 0 mm | - | 94 W/m² | - |
| 1778103971 | 15.56° C | 76% | 1018.8 hPa | 0 mm | - | 35 W/m² | - |
| 1778103668 | 15.56° C | 75% | 1018.7 hPa | 0 mm | - | 112 W/m² | - |
| 1778103366 | 15.56° C | 76% | 1019 hPa | 0 mm | - | 80 W/m² | - |
| 1778103063 | 15° C | 75% | 1018.9 hPa | 0 mm | - | 73 W/m² | - |
| 1778102760 | 15.56° C | 75% | 1019 hPa | 0 mm | - | 52 W/m² | - |
| 1778102454 | 15.56° C | 74% | 1018.6 hPa | 0 mm | - | 56 W/m² | - |
| 1778102151 | 15.56° C | 74% | 1018.7 hPa | 0 mm | - | 55 W/m² | - |
| 1778101848 | 15.56° C | 73% | 1018.6 hPa | 0 mm | - | 62 W/m² | - |
| 1778101544 | 15.56° C | 72% | 1018.6 hPa | 0 mm | - | 39 W/m² | - |
| 1778101241 | 15.56° C | 74% | 1018.5 hPa | 0 mm | - | 60 W/m² | - |
| 1778100938 | 16.11° C | 72% | 1018.5 hPa | 0 mm | - | 91 W/m² | - |
| 1778100633 | 16.11° C | 72% | 1018.4 hPa | 0 mm | - | 138 W/m² | - |
| 1778100331 | 16.67° C | 69% | 1018.4 hPa | 0 mm | - | 155 W/m² | - |
| 1778100028 | 16.67° C | 73% | 1018.1 hPa | 0 mm | - | 190 W/m² | - |
| 1778099726 | 16.67° C | 73% | 1018.6 hPa | 0 mm | - | 169 W/m² | - |
| 1778099422 | 16.67° C | 71% | 1018.4 hPa | 0 mm | - | 169 W/m² | - |
| 1778099120 | 16.67° C | 71% | 1018.7 hPa | 0 mm | - | 179 W/m² | - |
* Rain latest hour (hover to see other rain measurements)
** Current wind speed in m/s (hover to see current wind gust speed)